period_start,C,m1,H,J0,J1,J2,J3,J4,J5,JA,JB,JC,JD,JJ,JK,JN,#
2014-05-03 00:00:30,0.13,1.57,0.00,15.19,21.92,23.36,6.05,31.17,1009.72,2059.97,2828.49,2932.12,3168.01,349.23,329.76,16.77,0000 0000 0000 0000 000000
2014-05-03 00:01:30,0.08,1.57,0.00,15.24,21.92,23.36,6.15,31.25,1009.74,2059.97,2828.29,2932.05,3168.00,349.63,329.70,16.77,0000 0000 0000 0000 000000
2014-05-03 00:02:31,0.05,1.57,0.00,15.30,21.93,23.33,6.02,31.13,1009.76,2059.95,2828.11,2932.01,3167.93,349.86,329.77,16.78,0000 0000 0000 0000 000000
2014-05-03 00:03:31,0.03,1.57,0.00,15.32,21.94,23.34,6.23,31.33,1009.74,2059.95,2828.03,2932.00,3167.75,350.58,330.89,16.79,0000 0000 0000 0000 000000
2014-05-03 00:04:31,0.03,1.57,0.00,15.31,21.94,23.35,6.20,31.13,1009.67,2059.94,2827.99,2932.00,3167.33,349.74,330.09,16.79,0000 0000 0000 0000 000000
2014-05-03 00:05:31,0.07,1.57,0.00,15.29,21.94,23.40,6.29,31.04,1009.67,2059.92,2827.75,2931.82,3167.13,350.43,330.76,16.80,0000 0000 0000 0000 000000
2014-05-03 00:06:32,0.11,1.58,0.00,15.30,21.94,23.38,6.18,31.46,1009.61,2059.86,2827.31,2931.38,3167.04,350.33,330.82,16.80,0000 0000 0000 0000 000000
2014-05-03 00:07:32,0.11,1.58,0.00,15.32,21.94,23.40,6.11,31.17,1009.57,2059.74,2827.11,2931.15,3166.99,349.11,329.46,16.81,0000 0000 0000 0000 000000
2014-05-03 00:08:32,0.01,1.58,0.00,15.35,21.95,23.43,6.22,31.17,1009.50,2059.70,2827.04,2931.08,3166.96,350.82,331.00,16.82,0000 0000 0000 0000 000000
2014-05-03 00:09:32,0.00,1.58,0.00,15.33,21.96,23.42,6.13,31.21,1009.50,2059.69,2827.00,2931.03,3166.85,349.47,329.75,16.82,0000 0000 0000 0000 000000
2014-05-03 00:10:33,0.01,1.58,0.00,15.29,21.97,23.42,6.16,31.25,1009.46,2059.61,2826.94,2931.01,3166.45,350.07,330.31,16.83,0000 0000 0000 0000 000000
2014-05-03 00:11:33,-0.01,1.58,0.00,15.18,21.97,23.43,6.20,31.25,1009.40,2059.47,2826.64,2931.00,3166.19,351.04,331.03,16.83,0000 0000 0000 0000 000000
2014-05-03 00:12:33,0.03,1.58,0.00,15.14,21.97,23.46,6.08,31.25,1009.36,2059.52,2826.32,2930.94,3166.08,349.20,329.82,16.84,0000 0000 0000 0000 000000
2014-05-03 00:13:34,0.07,1.58,0.00,15.09,21.97,23.51,6.19,31.08,1009.37,2059.40,2826.12,2930.58,3166.02,350.00,330.49,16.84,0000 0000 0000 0000 000000
2014-05-03 00:14:34,0.05,1.58,0.00,15.08,21.97,23.53,5.98,31.17,1009.34,2059.27,2826.04,2930.24,3165.99,348.96,329.80,16.85,0000 0000 0000 0000 000000
2014-05-03 00:15:34,0.03,1.58,0.00,15.13,21.98,23.55,6.21,31.29,1009.31,2059.20,2825.97,2930.09,3165.92,350.36,330.42,16.86,0000 0000 0000 0000 000000
2014-05-03 00:16:34,0.01,1.58,0.00,15.15,21.99,23.47,6.23,31.04,1009.30,2059.15,2825.75,2930.03,3165.61,350.66,331.24,16.86,0000 0000 0000 0000 000000
2014-05-03 00:17:35,0.04,1.58,0.00,15.14,21.99,23.47,6.26,31.13,1009.30,2059.09,2825.32,2930.00,3165.25,350.59,330.96,16.87,0000 0000 0000 0000 000000
2014-05-03 00:18:35,0.07,1.58,0.00,15.13,21.99,23.44,6.21,31.08,1009.30,2059.07,2825.12,2929.97,3165.09,349.63,329.71,16.87,0000 0000 0000 0000 000000
2014-05-03 00:19:35,0.07,1.58,0.00,15.14,21.99,23.42,6.13,31.08,1009.29,2059.09,2825.04,2929.93,3165.03,349.24,329.25,16.88,0000 0000 0000 0000 000000
2014-05-03 00:20:35,0.02,1.58,0.00,15.17,21.99,23.44,6.24,31.13,1009.29,2059.05,2825.00,2929.87,3165.01,350.28,330.85,16.89,0000 0000 0000 0000 000000
2014-05-03 00:21:36,0.04,1.58,0.00,15.23,22.00,23.45,6.29,31.33,1009.29,2059.06,2824.93,2929.49,3164.99,349.26,329.76,16.89,0000 0000 0000 0000 000000
2014-05-03 00:22:36,0.09,1.58,0.00,15.27,22.01,23.45,6.13,31.42,1009.29,2059.07,2824.70,2929.21,3164.93,349.50,329.32,16.90,0000 0000 0000 0000 000000
2014-05-03 00:23:36,0.10,1.58,0.00,15.29,22.02,23.52,6.00,31.17,1009.29,2059.06,2824.41,2929.08,3164.75,348.86,329.15,16.90,0000 0000 0000 0000 000000
2014-05-03 00:24:37,0.11,1.58,0.00,15.30,22.02,23.54,6.30,31.46,1009.29,2059.05,2824.18,2929.03,3164.39,350.87,331.12,16.91,0000 0000 0000 0000 000000
2014-05-03 00:25:37,0.10,1.58,0.00,15.29,22.02,23.54,6.13,31.63,1009.29,2059.04,2824.03,2929.00,3164.14,349.54,329.79,16.92,0000 0000 0000 0000 000000
2014-05-03 00:26:37,0.05,1.58,0.00,15.26,22.02,23.53,6.18,31.46,1009.29,2059.02,2823.91,2928.95,3164.05,349.40,329.70,16.92,0000 0000 0000 0000 000000
2014-05-03 00:27:38,0.01,1.58,0.00,15.18,22.02,23.53,6.22,31.42,1009.29,2059.00,2823.75,2928.88,3164.01,350.26,330.33,16.93,0000 0000 0000 0000 000000
2014-05-03 00:28:38,0.06,1.58,0.00,15.11,22.03,23.49,6.09,31.42,1009.29,2059.02,2823.38,2928.64,3163.99,349.22,329.42,16.93,0000 0000 0000 0000 000000
2014-05-03 00:29:38,0.13,1.58,0.00,15.11,22.04,23.50,6.18,31.17,1009.29,2059.02,2823.17,2928.35,3163.95,350.44,330.85,16.94,0000 0000 0000 0000 000000
2014-05-03 00:30:38,0.11,1.58,0.00,15.12,22.04,23.52,6.14,31.25,1009.28,2059.05,2823.06,2928.18,3163.79,349.47,329.92,16.94,0000 0000 0000 0000 000000
2014-05-03 00:31:39,0.08,1.58,0.00,15.15,22.04,23.49,6.07,31.17,1009.29,2059.03,2823.02,2928.10,3163.63,349.31,330.03,16.95,0000 0000 0000 0000 000000
2014-05-03 00:32:39,0.06,1.58,0.00,15.17,22.04,23.50,6.04,31.29,1009.28,2059.03,2823.00,2928.03,3163.28,349.47,330.15,16.96,0000 0000 0000 0000 000000
2014-05-03 00:33:39,0.05,1.58,0.00,15.17,22.04,23.57,6.27,31.25,1009.28,2059.03,2822.87,2928.01,3163.12,350.00,330.21,16.96,0000 0000 0000 0000 000000
2014-05-03 00:34:39,0.06,1.58,0.00,15.23,22.05,23.58,6.17,31.21,1009.26,2059.04,2822.58,2928.00,3163.04,349.63,329.94,16.97,0000 0000 0000 0000 000000
2014-05-03 00:35:40,0.07,1.59,0.00,15.29,22.06,23.58,6.23,31.17,1009.28,2059.05,2822.25,2927.99,3163.00,351.04,331.20,16.97,0000 0000 0000 0000 000000
2014-05-03 00:36:40,0.05,1.59,0.00,15.32,22.07,23.53,6.17,31.42,1009.26,2059.04,2822.12,2927.99,3163.00,349.78,329.97,16.98,0000 0000 0000 0000 000000
2014-05-03 00:37:40,0.01,1.59,0.00,15.33,22.07,23.53,6.29,31.08,1009.26,2059.02,2822.05,2927.84,3162.96,350.84,330.63,16.99,0000 0000 0000 0000 000000
2014-05-03 00:38:40,0.06,1.59,0.00,15.34,22.07,23.54,6.21,31.21,1009.23,2059.00,2821.99,2927.44,3162.60,349.42,329.47,16.99,0000 0000 0000 0000 000000
2014-05-03 00:39:41,0.15,1.59,0.00,15.35,22.07,23.49,6.24,31.13,1009.23,2059.00,2821.79,2927.17,3162.26,350.46,330.31,17.00,0000 0000 0000 0000 000000
2014-05-03 00:40:41,0.14,1.59,0.00,15.31,22.07,23.48,6.17,31.04,1009.14,2059.00,2821.50,2927.07,3162.11,349.55,329.72,17.00,0000 0000 0000 0000 000000
2014-05-03 00:41:41,0.09,1.59,0.00,15.21,22.08,23.54,6.15,31.17,1009.13,2059.00,2821.18,2927.02,3162.04,350.52,330.76,17.01,0000 0000 0000 0000 000000
2014-05-03 00:42:41,0.07,1.59,0.00,15.19,22.09,23.58,6.21,31.33,1009.01,2059.01,2821.07,2927.00,3162.01,350.36,330.60,17.01,0000 0000 0000 0000 000000
2014-05-03 00:43:42,0.02,1.59,0.00,15.19,22.09,23.60,6.13,31.04,1008.91,2059.00,2821.02,2926.96,3161.98,349.72,329.95,17.02,0000 0000 0000 0000 000000
2014-05-03 00:44:42,0.01,1.59,0.00,15.19,22.09,23.64,6.07,31.50,1008.87,2059.00,2820.99,2926.89,3161.95,348.79,329.07,17.03,0000 0000 0000 0000 000000
2014-05-03 00:45:42,0.03,1.59,0.00,15.23,22.09,23.60,6.29,31.17,1008.85,2059.00,2820.78,2926.56,3161.65,351.92,331.96,17.03,0000 0000 0000 0000 000000
2014-05-03 00:46:42,0.19,1.59,0.00,15.27,22.09,23.62,6.20,31.04,1008.83,2059.00,2820.46,2926.21,3161.26,350.17,330.27,17.04,0000 0000 0000 0000 000000
2014-05-03 00:47:43,0.18,1.59,0.00,15.29,22.11,23.62,6.08,31.08,1008.82,2059.00,2820.19,2926.08,3161.10,350.18,330.02,17.04,0000 0000 0000 0000 000000
2014-05-03 00:48:43,0.08,1.59,0.00,15.28,22.12,23.66,6.12,31.08,1008.82,2059.00,2820.08,2926.03,3161.04,350.18,330.25,17.05,0000 0000 0000 0000 000000
2014-05-03 00:49:43,0.03,1.59,0.00,15.27,22.12,23.69,6.10,31.17,1008.81,2058.99,2820.03,2926.00,3161.01,349.53,329.65,17.06,0000 0000 0000 0000 000000
2014-05-03 00:50:44,0.01,1.59,0.00,15.32,22.12,23.61,6.08,31.21,1008.81,2058.98,2819.95,2926.00,3160.99,349.39,329.32,17.06,0000 0000 0000 0000 000000
2014-05-03 00:51:44,0.01,1.59,0.00,15.32,22.12,23.61,6.05,31.17,1008.81,2058.99,2819.57,2925.96,3160.94,350.22,330.24,17.07,0000 0000 0000 0000 000000
2014-05-03 00:52:44,0.10,1.59,0.00,15.33,22.12,23.66,6.18,31.38,1008.80,2058.99,2819.24,2925.91,3160.84,349.68,329.72,17.07,0000 0000 0000 0000 000000
2014-05-03 00:53:45,0.07,1.59,0.00,15.36,22.13,23.63,6.22,31.33,1008.80,2058.99,2819.11,2925.83,3160.64,350.23,330.23,17.08,0000 0000 0000 0000 000000
2014-05-03 00:54:45,0.08,1.59,0.00,15.38,22.14,23.60,6.09,31.13,1008.80,2058.99,2819.05,2925.49,3160.30,349.44,328.86,17.09,0000 0000 0000 0000 000000
2014-05-03 00:55:45,0.13,1.59,0.00,15.32,22.14,23.65,6.21,31.00,1008.80,2058.99,2819.00,2925.25,3160.11,350.82,330.81,17.09,0000 0000 0000 0000 000000
2014-05-03 00:56:45,0.09,1.60,0.00,15.30,22.14,23.65,6.17,31.33,1008.80,2058.99,2818.98,2925.09,3160.04,350.01,330.27,17.10,0000 0000 0000 0000 000000
2014-05-03 00:57:46,0.04,1.60,0.00,15.29,22.15,23.61,6.17,31.25,1008.80,2058.99,2818.97,2925.03,3160.01,349.29,329.56,17.10,0000 0000 0000 0000 000000
2014-05-03 00:58:46,0.03,1.60,0.00,15.29,22.15,23.60,6.30,31.29,1008.80,2058.99,2818.52,2925.01,3160.00,350.80,330.58,17.11,0000 0000 0000 0000 000000
2014-05-03 00:59:46,0.07,1.60,0.00,15.30,22.16,23.71,6.23,31.08,1008.80,2058.99,2818.19,2924.98,3159.96,350.48,330.52,17.11,0000 0000 0000 0000 000000
2014-05-03 01:00:46,0.08,1.60,0.00,15.32,22.17,23.69,6.21,31.50,1008.74,2058.99,2818.07,2924.87,3159.59,348.99,329.07,17.12,0000 0000 0000 0000 000000
2014-05-03 01:01:47,0.11,1.60,0.00,15.33,22.17,23.63,6.31,31.17,1008.73,2058.99,2818.00,2924.47,3159.26,350.73,330.97,17.13,0000 0000 0000 0000 000000
2014-05-03 01:02:47,0.14,1.60,0.00,15.35,22.17,23.62,6.26,31.25,1008.73,2058.99,2817.87,2924.21,3159.11,350.69,330.63,17.13,0000 0000 0000 0000 000000
2014-05-03 01:03:47,0.13,1.60,0.00,15.35,22.17,23.66,6.07,31.00,1008.60,2058.99,2817.52,2924.08,3159.04,350.60,330.49,17.14,0000 0000 0000 0000 000000
2014-05-03 01:04:47,0.09,1.60,0.00,15.40,22.18,23.67,6.14,31.29,1008.50,2058.97,2817.20,2924.03,3159.01,349.75,329.61,17.14,0000 0000 0000 0000 000000
2014-05-03 01:05:48,0.05,1.60,0.00,15.48,22.19,23.64,6.15,31.08,1008.46,2058.98,2817.08,2924.01,3158.97,350.05,330.00,17.15,0000 0000 0000 0000 000000
2014-05-03 01:06:48,0.03,1.60,0.00,15.50,22.19,23.67,6.09,31.29,1008.38,2058.98,2817.03,2924.00,3158.80,349.24,328.66,17.16,0000 0000 0000 0000 000000
2014-05-03 01:07:48,0.03,1.60,0.00,15.46,22.19,23.69,6.03,31.17,1008.39,2058.98,2816.96,2923.99,3158.44,350.00,329.32,17.16,0000 0000 0000 0000 000000
2014-05-03 01:08:48,0.07,1.60,0.00,15.40,22.19,23.64,6.02,31.25,1008.35,2058.98,2816.67,2923.74,3158.18,350.05,329.85,17.17,0000 0000 0000 0000 000000
2014-05-03 01:09:49,0.17,1.60,0.00,15.37,22.20,23.70,6.15,31.21,1008.36,2058.96,2816.26,2923.34,3158.07,350.62,330.59,17.17,0000 0000 0000 0000 000000
2014-05-03 01:10:49,0.14,1.60,0.00,15.36,22.21,23.75,6.07,31.04,1008.34,2058.95,2816.10,2923.14,3158.00,350.39,330.21,17.18,0000 0000 0000 0000 000000
2014-05-03 01:11:49,0.08,1.60,0.00,15.35,22.22,23.73,6.18,31.04,1008.34,2058.92,2816.03,2923.05,3157.94,350.41,330.05,17.18,0000 0000 0000 0000 000000
2014-05-03 01:12:49,0.02,1.60,0.00,15.36,22.22,23.72,6.12,31.17,1008.34,2058.93,2816.00,2923.01,3157.67,349.71,329.57,17.19,0000 0000 0000 0000 000000
2014-05-03 01:13:50,0.04,1.60,0.00,15.40,22.22,23.71,6.21,31.04,1008.33,2058.94,2815.99,2922.99,3157.34,350.31,330.15,17.20,0000 0000 0000 0000 000000
2014-05-03 01:14:50,0.06,1.60,0.00,15.44,22.22,23.69,6.06,31.08,1008.32,2058.93,2815.76,2922.88,3157.15,349.87,329.38,17.20,0000 0000 0000 0000 000000
2014-05-03 01:15:50,0.09,1.60,0.00,15.52,22.22,23.71,6.20,31.21,1008.35,2058.94,2815.34,2922.66,3157.05,350.69,330.41,17.21,0000 0000 0000 0000 000000
2014-05-03 01:16:51,0.15,1.61,0.00,15.53,22.24,23.74,6.28,31.21,1008.35,2058.94,2815.12,2922.28,3157.01,350.12,329.58,17.21,0000 0000 0000 0000 000000
2014-05-03 01:17:51,0.13,1.61,0.00,15.54,22.24,23.72,6.22,31.13,1008.35,2058.93,2815.04,2922.12,3157.00,350.97,330.46,17.22,0000 0000 0000 0000 000000
2014-05-03 01:18:51,0.03,1.61,0.00,15.56,22.24,23.73,6.20,31.21,1008.34,2058.76,2815.01,2922.05,3156.92,350.36,329.95,17.23,0000 0000 0000 0000 000000
2014-05-03 01:19:51,-0.05,1.61,0.00,15.58,22.24,23.76,6.08,31.21,1008.33,2058.79,2814.96,2922.01,3156.73,349.11,328.74,17.23,0000 0000 0000 0000 000000
2014-05-03 01:20:52,0.09,1.61,0.00,15.64,22.25,23.81,6.10,31.04,1008.32,2058.80,2814.86,2922.00,3156.40,349.38,328.93,17.24,0000 0000 0000 0000 000000
2014-05-03 01:21:52,0.05,1.61,0.00,15.61,22.26,23.84,6.19,31.08,1008.33,2058.68,2814.41,2921.96,3156.16,350.35,329.88,17.24,0000 0000 0000 0000 000000
2014-05-03 01:22:52,0.01,1.61,0.00,15.50,22.27,23.84,6.13,31.04,1008.32,2058.62,2814.16,2921.86,3156.05,350.56,330.20,17.25,0000 0000 0000 0000 000000
2014-05-03 01:23:53,0.06,1.61,0.00,15.47,22.27,23.86,6.00,31.25,1008.32,2058.57,2814.05,2921.51,3156.02,348.36,328.36,17.26,0000 0000 0000 0000 000000
2014-05-03 01:24:53,0.02,1.61,0.00,15.47,22.27,23.84,6.27,31.58,1008.33,2058.33,2813.88,2921.22,3155.99,350.00,330.06,17.26,0000 0000 0000 0000 000000
2014-05-03 01:25:53,-0.09,1.61,0.00,15.47,22.28,23.84,6.21,31.17,1008.33,2058.31,2813.57,2921.08,3155.85,350.48,329.99,17.27,0000 0000 0000 0000 000000
2014-05-03 01:26:53,0.08,1.61,0.00,15.51,22.29,23.86,6.17,31.63,1008.32,2058.18,2813.26,2921.03,3155.41,349.93,329.60,17.27,0000 0000 0000 0000 000000
2014-05-03 01:27:53,0.05,1.61,0.00,15.57,22.29,23.84,6.23,31.29,1008.32,2058.13,2813.10,2921.00,3155.17,350.70,330.25,17.28,0000 0000 0000 0000 000000
2014-05-03 01:28:54,0.01,1.61,0.00,15.57,22.29,23.87,5.98,31.17,1008.32,2058.08,2813.04,2920.97,3155.06,349.07,328.72,17.28,0000 0000 0000 0000 000000
2014-05-03 01:29:54,-0.01,1.61,0.00,15.63,22.29,23.86,6.04,31.54,1008.32,2058.07,2812.99,2920.96,3155.02,348.64,328.48,17.29,0000 0000 0000 0000 000000
2014-05-03 01:30:54,0.01,1.61,0.00,15.66,22.30,23.85,6.06,31.17,1008.32,2058.08,2812.94,2920.70,3155.00,348.92,328.10,17.30,0000 0000 0000 0000 000000
2014-05-03 01:31:54,0.10,1.61,0.00,15.67,22.31,23.88,6.17,31.04,1008.32,2058.08,2812.61,2920.32,3154.95,350.18,329.75,17.30,0000 0000 0000 0000 000000
2014-05-03 01:32:54,0.17,1.61,0.00,15.67,22.32,23.89,6.23,31.00,1008.32,2058.05,2812.26,2920.11,3154.84,350.23,329.37,17.31,0000 0000 0000 0000 000000
2014-05-03 01:33:55,0.07,1.61,0.00,15.66,22.32,23.94,6.02,31.13,1008.32,2058.04,2812.09,2920.04,3154.56,349.32,329.12,17.31,0000 0000 0000 0000 000000
2014-05-03 01:34:55,0.08,1.61,0.00,15.71,22.32,23.94,6.18,31.04,1008.32,2058.03,2812.03,2920.01,3154.25,349.63,329.09,17.32,0000 0000 0000 0000 000000
2014-05-03 01:35:55,0.06,1.61,0.00,15.76,22.33,23.95,6.17,31.33,1008.32,2058.05,2811.99,2920.00,3154.10,349.84,328.97,17.33,0000 0000 0000 0000 000000
2014-05-03 01:36:55,0.02,1.61,0.00,15.78,22.34,23.95,6.32,31.13,1008.32,2058.03,2811.72,2919.97,3154.03,350.74,329.96,17.33,0000 0000 0000 0000 000000
2014-05-03 01:37:55,0.05,1.61,0.00,15.81,22.34,23.93,6.08,31.08,1008.31,2058.02,2811.36,2919.88,3153.99,349.53,328.82,17.34,0000 0000 0000 0000 000000
2014-05-03 01:38:56,0.09,1.61,0.00,15.85,22.34,23.95,6.24,31.29,1008.30,2058.04,2811.13,2919.55,3153.97,350.22,329.36,17.34,0000 0000 0000 0000 000000
2014-05-03 01:39:56,0.15,1.61,0.00,15.85,22.35,23.97,6.12,31.25,1008.29,2058.04,2811.05,2919.24,3153.81,351.07,330.27,17.35,0000 0000 0000 0000 000000
2014-05-03 01:40:56,0.10,1.61,0.00,15.84,22.36,24.00,6.15,31.08,1008.28,2058.01,2811.00,2919.10,3153.53,349.79,329.07,17.36,0000 0000 0000 0000 000000
2014-05-03 01:41:56,0.06,1.61,0.00,15.85,22.37,24.00,6.13,31.25,1008.22,2058.00,2810.98,2919.04,3153.25,351.13,330.30,17.36,0000 0000 0000 0000 000000
2014-05-03 01:42:57,0.04,1.61,0.00,15.83,22.37,24.02,6.26,31.00,1008.21,2058.00,2810.72,2919.00,3153.10,351.65,330.81,17.37,0000 0000 0000 0000 000000
2014-05-03 01:43:57,0.09,1.61,0.00,15.81,22.37,24.02,6.00,31.13,1008.14,2058.00,2810.29,2918.97,3153.03,349.46,328.75,17.37,0000 0000 0000 0000 000000
2014-05-03 01:44:57,0.08,1.62,0.00,15.76,22.39,24.01,6.23,31.21,1008.07,2058.00,2810.11,2918.89,3153.01,351.21,330.43,17.38,0000 0000 0000 0000 000000
2014-05-03 01:45:57,0.05,1.62,0.00,15.76,22.39,24.04,5.99,31.08,1007.97,2058.00,2810.02,2918.52,3152.94,349.45,328.74,17.38,0000 0000 0000 0000 000000
2014-05-03 01:46:58,0.13,1.62,0.00,15.77,22.39,24.05,6.31,31.13,1007.90,2058.00,2809.99,2918.21,3152.70,351.63,331.04,17.39,0000 0000 0000 0000 000000
2014-05-03 01:47:58,0.10,1.62,0.00,15.63,22.40,24.06,6.18,31.29,1007.91,2058.00,2809.75,2918.08,3152.37,349.55,328.96,17.40,0000 0000 0000 0000 000000
2014-05-03 01:48:58,0.13,1.62,0.00,15.57,22.40,24.06,6.23,31.25,1007.87,2058.00,2809.44,2918.03,3152.15,351.25,330.63,17.40,0000 0000 0000 0000 000000
2014-05-03 01:49:58,0.08,1.62,0.00,15.57,22.42,24.04,5.91,30.92,1007.93,2057.99,2809.20,2918.01,3152.05,349.82,329.29,17.41,0000 0000 0000 0000 000000
2014-05-03 01:50:58,0.05,1.62,0.00,15.62,22.42,24.09,6.17,31.17,1007.90,2057.99,2809.08,2917.97,3152.02,349.82,329.23,17.41,0000 0000 0000 0000 000000
2014-05-03 01:51:59,0.03,1.62,0.00,15.69,22.42,24.05,6.20,31.08,1007.92,2057.99,2809.00,2917.94,3152.00,349.93,329.26,17.42,0000 0000 0000 0000 000000
2014-05-03 01:52:59,0.01,1.62,0.00,15.72,22.42,24.03,6.08,31.38,1007.92,2057.99,2808.94,2917.86,3151.98,349.19,328.39,17.43,0000 0000 0000 0000 000000
2014-05-03 01:53:59,0.03,1.62,0.00,15.73,22.43,24.04,6.32,31.04,1007.89,2057.98,2808.72,2917.51,3151.85,350.95,330.16,17.43,0000 0000 0000 0000 000000
2014-05-03 01:54:59,0.11,1.62,0.00,15.72,22.44,24.05,6.07,31.17,1007.85,2057.99,2808.54,2917.26,3151.52,349.85,329.12,17.44,0000 0000 0000 0000 000000
2014-05-03 01:56:00,0.19,1.62,0.00,15.72,22.44,24.14,6.15,31.38,1007.87,2057.98,2808.25,2917.10,3151.22,350.08,329.35,17.44,0000 0000 0000 0000 000000
2014-05-03 01:57:00,0.11,1.62,0.00,15.78,22.45,24.13,6.36,31.25,1007.85,2057.98,2808.10,2917.03,3151.08,350.46,329.63,17.45,0000 0000 0000 0000 000000
2014-05-03 01:58:00,0.06,1.62,0.00,15.80,22.46,24.12,6.17,31.21,1007.84,2057.98,2808.02,2917.01,3151.02,349.54,328.66,17.45,0000 0000 0000 0000 000000
2014-05-03 01:59:00,0.02,1.62,0.00,15.85,22.47,24.11,6.17,31.25,1007.84,2057.97,2807.88,2917.00,3150.98,349.72,328.81,17.46,0000 0000 0000 0000 000000
2014-05-03 02:00:01,0.03,1.62,0.00,15.92,22.47,24.11,6.13,31.08,1007.83,2057.98,2807.55,2916.93,3150.92,349.83,329.10,17.47,0000 0000 0000 0000 000000
2014-05-03 02:01:01,0.09,1.62,0.00,15.93,22.47,24.12,6.10,31.25,1007.84,2057.96,2807.22,2916.68,3150.58,349.86,328.84,17.47,0000 0000 0000 0000 000000
2014-05-03 02:02:01,0.18,1.62,0.00,15.97,22.47,24.13,6.08,31.33,1007.83,2057.98,2807.05,2916.32,3150.24,349.26,328.27,17.48,0000 0000 0000 0000 000000
2014-05-03 02:03:01,0.17,1.62,0.00,15.97,22.49,24.12,6.05,31.00,1007.83,2057.98,2806.98,2916.14,3150.10,349.88,328.86,17.48,0000 0000 0000 0000 000000
2014-05-03 02:04:01,0.07,1.63,0.00,15.98,22.49,24.13,6.13,31.00,1007.83,2057.99,2806.88,2916.05,3150.02,350.39,329.34,17.49,0000 0000 0000 0000 000000
2014-05-03 02:05:02,0.04,1.63,0.00,15.99,22.49,24.15,5.92,31.00,1007.83,2057.98,2806.81,2916.02,3150.00,349.18,328.18,17.50,0000 0000 0000 0000 000000
2014-05-03 02:06:02,0.02,1.63,0.00,15.90,22.50,24.15,6.19,31.08,1007.83,2057.96,2806.43,2916.00,3149.95,350.18,329.22,17.50,0000 0000 0000 0000 000000
2014-05-03 02:07:02,0.04,1.63,0.00,15.82,22.51,24.14,6.20,31.08,1007.84,2057.96,2806.15,2915.90,3149.74,350.25,329.38,17.51,0000 0000 0000 0000 000000
2014-05-03 02:08:02,0.14,1.63,0.00,15.84,22.52,24.12,6.27,31.04,1007.84,2057.96,2806.05,2915.79,3149.44,350.57,329.66,17.51,0000 0000 0000 0000 000000
2014-05-03 02:09:02,0.07,1.63,0.00,15.85,22.52,24.11,6.22,31.00,1007.83,2057.94,2806.02,2915.47,3149.18,350.81,329.88,17.52,0000 0000 0000 0000 000000
2014-05-03 02:10:03,0.11,1.63,0.00,15.87,22.52,24.14,6.09,31.00,1007.83,2057.84,2805.84,2915.19,3149.07,350.61,329.69,17.52,0000 0000 0000 0000 000000
2014-05-03 02:11:03,0.03,1.63,0.00,15.90,22.54,24.15,6.09,31.08,1007.83,2057.82,2805.44,2915.07,3149.02,349.39,328.20,17.53,0000 0000 0000 0000 000000
2014-05-03 02:12:03,0.08,1.63,0.00,15.92,22.54,24.15,6.15,31.08,1007.83,2057.82,2805.16,2915.02,3149.00,351.04,329.78,17.54,0000 0000 0000 0000 000000
2014-05-03 02:13:03,0.07,1.63,0.00,15.94,22.54,24.17,6.24,31.08,1007.83,2057.70,2805.07,2915.00,3148.93,349.33,328.38,17.54,0000 0000 0000 0000 000000
2014-05-03 02:14:03,-0.16,1.63,0.00,15.96,22.55,24.19,6.27,31.08,1007.83,2057.65,2804.94,2914.94,3148.70,350.60,329.55,17.55,0000 0000 0000 0000 000000
2014-05-03 02:15:03,0.13,1.63,0.00,16.03,22.56,24.17,6.11,31.04,1007.82,2057.61,2804.88,2914.81,3148.35,350.52,329.40,17.55,0000 0000 0000 0000 000000
2014-05-03 02:16:04,0.02,1.63,0.00,16.06,22.57,24.19,6.16,31.04,1007.82,2057.55,2804.58,2914.51,3148.14,349.65,328.34,17.56,0000 0000 0000 0000 000000
2014-05-03 02:17:04,0.12,1.63,0.00,16.06,22.57,24.17,6.13,31.04,1007.82,2057.38,2804.26,2914.23,3148.05,350.75,329.71,17.57,0000 0000 0000 0000 000000
2014-05-03 02:18:04,0.00,1.63,0.00,16.06,22.57,24.15,6.25,31.00,1007.83,2057.25,2804.09,2914.10,3148.01,350.17,329.15,17.57,0000 0000 0000 0000 000000
2014-05-03 02:19:04,-0.06,1.63,0.00,16.03,22.59,24.18,6.09,31.08,1007.81,2057.24,2804.03,2914.03,3147.97,350.29,329.17,17.58,0000 0000 0000 0000 000000
2014-05-03 02:20:04,0.00,1.63,0.00,16.00,22.59,24.18,6.08,31.29,1007.81,2057.18,2803.79,2914.00,3147.78,349.40,328.34,17.58,0000 0000 0000 0000 000000
2014-05-03 02:21:04,0.07,1.63,0.00,16.00,22.59,24.18,5.98,31.08,1007.80,2057.17,2803.35,2913.98,3147.39,349.41,328.46,17.59,0000 0000 0000 0000 000000
2014-05-03 02:22:05,0.13,1.63,0.00,16.02,22.59,24.21,6.22,31.00,1007.80,2057.09,2803.13,2913.84,3147.16,350.08,328.99,17.59,0000 0000 0000 0000 000000
2014-05-03 02:23:05,0.01,1.63,0.00,15.96,22.60,24.21,6.04,31.17,1007.79,2057.09,2803.05,2913.45,3147.06,349.49,329.16,17.60,0000 0000 0000 0000 000000
2014-05-03 02:24:05,0.15,1.63,0.00,15.93,22.62,24.22,6.20,31.21,1007.79,2057.07,2803.02,2913.18,3147.01,350.11,328.93,17.61,0000 0000 0000 0000 000000
2014-05-03 02:25:05,0.04,1.63,0.00,15.90,22.62,24.20,6.17,31.46,1007.78,2057.05,2802.63,2913.06,3146.93,348.84,327.87,17.61,0000 0000 0000 0000 000000
2014-05-03 02:26:05,0.10,1.63,0.00,15.93,22.62,24.20,6.05,31.13,1007.78,2057.03,2802.29,2913.01,3146.63,349.70,328.58,17.62,0000 0000 0000 0000 000000
2014-05-03 02:27:06,0.09,1.63,0.00,15.92,22.63,24.21,6.11,31.21,1007.67,2057.01,2802.13,2912.98,3146.30,350.46,329.26,17.62,0000 0000 0000 0000 000000
2014-05-03 02:28:06,0.07,1.63,0.00,15.91,22.64,24.21,6.17,31.21,1007.66,2057.00,2802.04,2912.97,3146.11,350.41,329.44,17.63,0000 0000 0000 0000 000000
2014-05-03 02:29:06,0.03,1.63,0.00,15.92,22.64,24.21,6.28,31.17,1007.67,2057.01,2802.00,2912.80,3146.03,351.26,330.39,17.64,0000 0000 0000 0000 000000
2014-05-03 02:30:06,0.06,1.63,0.00,15.94,22.65,24.29,6.22,31.13,1007.63,2057.01,2801.98,2912.43,3146.01,350.52,329.44,17.64,0000 0000 0000 0000 000000
2014-05-03 02:31:06,0.12,1.63,0.00,15.94,22.65,24.31,6.07,31.00,1007.63,2057.00,2801.74,2912.18,3145.99,349.66,328.63,17.65,0000 0000 0000 0000 000000
2014-05-03 02:32:07,0.11,1.64,0.00,15.91,22.66,24.33,6.11,31.21,1007.58,2057.00,2801.41,2912.08,3145.97,348.96,327.98,17.65,0000 0000 0000 0000 000000
2014-05-03 02:33:07,0.07,1.64,0.00,15.94,22.67,24.31,6.27,31.29,1007.52,2057.00,2801.16,2912.03,3145.79,350.63,329.51,17.66,0000 0000 0000 0000 000000
2014-05-03 02:34:07,0.08,1.64,0.00,15.91,22.67,24.33,6.02,31.08,1007.49,2057.01,2801.05,2912.00,3145.38,350.09,329.01,17.67,0000 0000 0000 0000 000000
2014-05-03 02:35:07,0.09,1.64,0.00,15.91,22.67,24.34,6.08,31.17,1007.43,2057.00,2800.98,2911.98,3145.14,348.79,327.78,17.67,0000 0000 0000 0000 000000
2014-05-03 02:36:07,0.04,1.64,0.00,15.95,22.68,24.33,6.26,31.08,1007.41,2057.00,2800.83,2911.96,3145.05,350.94,329.74,17.68,0000 0000 0000 0000 000000